Tracking 22836 objects as of 17-Apr-2021
HD Live streaming from Space Station
objects crossing your sky now

INTELSAT 904

Track INTELSAT 904 now!
INTELSAT 904 is classified as:


NORAD ID: 27380
Int'l Code: 2002-007A
Perigee: 35,780.1 km
Apogee: 35,807.8 km
Inclination: 2.2 °
Period: 1,436.1 minutes
Semi major axis: 42164 km
RCS: 11.3214 m2 (large)
Launch date: February 23, 2002
Source: International Telecommunications Satellite Organization (ITSO)
Launch site: FRENCH GUIANA (FRGUI)

76 C-band, 22 Ku-band, broadcasting, business services, direct-to-home TV broadcasting, telecommunications, VSAT networks; Indian Ocean region.
aabbcc
Your satellite tracking list
Your tracking list is empty




NASA's NSSDC Master Catalog

Two Line Element Set (TLE):
1 27380U 02007A   21107.39881347 -.00000209  00000-0  00000-0 0  9995
2 27380   2.1870  90.2732 0003284 296.5238 293.0246  1.00271196 32845
Source of the keplerian elements: AFSPC